Location: *
(18.5200°S, 46.4500°E)
Time: 06:40:14
(UTC+00:00)

Cosmos 2219 - Pass Details

Date: 19 July 2019
Orbit: 832 x 861 km, 71.1° (Epoch: 23 August)

Event Time Altitude Azimuth Distance (km) Brightness Sun altitude
Rises 16:25:48 0° 343° (NNW) 3,410 6.8 -25.8°
Reaches altitude 10° 16:28:15 10° 342° (NNW) 2,477 6.0 -26.3°
Maximum altitude 16:33:57 85° 254° (WSW) 860 3.1 -27.7°
Enters shadow 16:34:28 74° 182° (S) 886 3.1 -27.8°
